SILO ALERT LOG
| Silo ID | Alert Type | Alert Message | Silo Type | Points | Depth (mm) | Strength | Temperature (°C) | Humidity (%) | Height (mm) | Volume (㎥) | Weight (t) | Flag | Time |
|---|---|---|---|---|---|---|---|---|---|---|---|---|---|
| DJSSD11 | Humidity | 습도센서 측정값이 80% 초과 | 호퍼 | 443 | 7409 | 147 | -4.1 | 82.2 | 3820 | 28.478 | 15.521 | 0 | 2024-01-11 05:39:32.000 |
| DJSSD09 | Temperature | 온도센서 측정값이 0도 미만 | 평 | 115 | 3004 | 3411 | -45.4 | 0 | 4675 | 650.71 | 411.379 | 11 | 2024-01-11 05:39:32.000 |
| DJHNR11 | Temperature | 온도센서 측정값이 0도 미만 | 호퍼 | 233 | 3262 | 1080 | -4.3 | 75.2 | 7117 | 99.578 | 62.953 | 11 | 2024-01-11 05:39:32.000 |
| DJHNR13 | Temperature | 온도센서 측정값이 0도 미만 | 호퍼 | 36 | 2941 | 2930 | -3 | 70.2 | 7438 | 106.502 | 67.33 | 11 | 2024-01-11 05:39:32.000 |
| DJDJD04 | Humidity | 습도센서 측정값이 80% 초과 | 평 | 280 | 4189 | 4469 | 2.2 | 81.9 | 3490 | 422.919 | 267.369 | 11 | 2024-01-11 05:39:32.000 |
| DJSAD12 | Humidity | 습도센서 측정값이 80% 초과 | 평 | 0 | 7700 | 0 | 2.2 | 86.7 | -120 | -17.075 | 0 | 31 | 2024-01-11 05:39:32.000 |
| DJHNR01 | Humidity | 습도센서 측정값이 80% 초과 | 호퍼 | 471 | 4307 | 5026 | 3 | 99.9 | 11072 | 472.839 | 298.929 | 13 | 2024-01-11 05:39:32.000 |
| DJSAD16 | Humidity | 습도센서 측정값이 80% 초과 | 평 | 98 | 6093 | 3410 | 3.2 | 80.8 | 1486 | 148.071 | 93.611 | 11 | 2024-01-11 05:39:31.000 |
| DJDJD01 | Temperature | 온도센서 측정값이 0도 미만 | 평 | 87 | 8527 | 3875 | -1 | 80.9 | -847 | -102.712 | 0 | 0 | 2024-01-11 05:39:30.000 |
| DJDJD01 | Humidity | 습도센서 측정값이 80% 초과 | 평 | 87 | 8527 | 3875 | -1 | 80.9 | -847 | -102.712 | 0 | 0 | 2024-01-11 05:39:30.000 |
| DJSAD17 | Humidity | 습도센서 측정값이 80% 초과 | 평 | 438 | 3131 | 4812 | 2.9 | 80.6 | 4448 | 442.928 | 280.019 | 0 | 2024-01-11 05:39:30.000 |
| DJSAD18 | Humidity | 습도센서 측정값이 80% 초과 | 평 | 117 | 1408 | 5801 | 3.6 | 80.8 | 6171 | 614.581 | 388.538 | 11 | 2024-01-11 05:39:30.000 |
| DJHNR14 | Temperature | 온도센서 측정값이 0도 미만 | 호퍼 | 28 | 2943 | 4449 | -3.6 | 73.3 | 7436 | 106.448 | 67.297 | 11 | 2024-01-11 05:39:30.000 |
| DJHNR03 | Temperature | 온도센서 상태 이상 | 호퍼 | 0 | 15500 | 0 | -999 | -999 | -119 | 0 | 0 | 31 | 2024-01-11 05:39:24.000 |
| DJSSD12 | Temperature | 온도센서 상태 이상 | 호퍼 | 0 | 11350 | 0 | -999 | -999 | -120 | 0 | 0 | 31 | 2024-01-11 05:39:24.000 |
| DJHNR12 | Temperature | 온도센서 측정값이 0도 미만 | 호퍼 | 0 | 10500 | 0 | -4.4 | 82.7 | -120 | 0 | 0 | 31 | 2024-01-11 05:39:23.000 |
| DJHNR12 | Humidity | 습도센서 측정값이 80% 초과 | 호퍼 | 0 | 10500 | 0 | -4.4 | 82.7 | -120 | 0 | 0 | 31 | 2024-01-11 05:39:23.000 |
| DJSAD01 | Humidity | 습도센서 측정값이 80% 초과 | 평 | 464 | 1523 | 7428 | 0.6 | 88.6 | 7256 | 300.386 | 189.904 | 0 | 2024-01-11 04:39:40.000 |
| DJDJD03 | Humidity | 습도센서 측정값이 80% 초과 | 평 | 62 | 4636 | 5138 | 1.3 | 80.8 | 3043 | 368.716 | 233.102 | 0 | 2024-01-11 04:39:40.000 |
| DJSAD03 | Humidity | 습도센서 측정값이 80% 초과 | 평 | 446 | 1710 | 6071 | 1.5 | 84.5 | 7069 | 292.666 | 185.023 | 0 | 2024-01-11 04:39:39.000 |
[첫 페이지] [10018] [10019] [10020] [10021] 10022 [10023] [10024] [10025] [10026] [마지막 페이지]